�N����,����,�g�[���i�䏊�j���x,�g�[�����x,��g�[���i���ցj���x,����
 2003/05/01, 0:00,21.5,59,16.6,17.6
 2003/05/01, 0:15,21.3,58,16.5,17.6
 2003/05/01, 0:30,21,58,16.2,17.7
 2003/05/01, 0:45,21.1,57,16.2,17.7
 2003/05/01, 1:00,21.3,55,16,17.7
 2003/05/01, 1:15,21.1,55,15.9,17.7
 2003/05/01, 1:30,20.9,56,15.9,17.7
 2003/05/01, 1:45,21,55,15.8,17.7
 2003/05/01, 2:00,20.6,56,15.6,17.7
 2003/05/01, 2:15,20.7,55,15.5,17.7
 2003/05/01, 2:30,20.4,56,15.3,17.7
 2003/05/01, 2:45,20.4,55,15.3,17.7
 2003/05/01, 3:00,20.1,56,15.1,17.7
 2003/05/01, 3:15,20,56,15,17.7
 2003/05/01, 3:30,19.9,56,15,17.7
 2003/05/01, 3:45,19.6,56,14.9,17.7
 2003/05/01, 4:00,19.7,55,14.8,17.7
 2003/05/01, 4:15,19.3,56,14.7,17.7
 2003/05/01, 4:30,19.5,55,14.7,17.7
 2003/05/01, 4:45,19.1,56,14.7,17.7
 2003/05/01, 5:00,19.2,55,14.6,17.7
 2003/05/01, 5:15,18.8,55,14.8,17.3
 2003/05/01, 5:30,19,59,14.8,17.3
 2003/05/01, 5:45,18.6,57,14.7,17.3
 2003/05/01, 6:00,18.6,55,14.7,17.3
 2003/05/01, 6:15,19,75,14.6,17.3
 2003/05/01, 6:30,19.1,61,14.5,17.3
 2003/05/01, 6:45,19,60,14.6,17.3
 2003/05/01, 7:00,19.3,58,14.8,17.3
 2003/05/01, 7:15,19.2,58,14.7,17.3
 2003/05/01, 7:30,18.9,58,15.2,17.3
 2003/05/01, 7:45,19,51,15.1,17.3
 2003/05/01, 8:00,18.4,45,15.2,17.3
 2003/05/01, 8:15,18.7,43,15.3,17.3
 2003/05/01, 8:30,18.3,41,15.5,17.2
 2003/05/01, 8:45,18.5,46,15.6,17.1
 2003/05/01, 9:00,18.3,46,16,17.1
 2003/05/01, 9:15,18.3,45,16.3,17.2
 2003/05/01, 9:30,18.6,47,16.5,17.2
 2003/05/01, 9:45,19.1,45,16.5,17.2
 2003/05/01,10:00,18.9,45,16.7,17.2
 2003/05/01,10:15,18.9,44,16.8,17
 2003/05/01,10:30,19.1,44,17,17
 2003/05/01,10:45,19.2,44,17.1,17
 2003/05/01,11:00,19.3,42,17.1,17
 2003/05/01,11:15,19.4,42,17.4,17
 2003/05/01,11:30,19.2,42,17.6,17
 2003/05/01,11:45,19.6,40,17.9,17.1
 2003/05/01,12:00,19.3,41,17.9,17
 2003/05/01,12:15,19.8,41,18.1,17
 2003/05/01,12:30,19.7,41,18.2,17
 2003/05/01,12:45,20,41,18.2,17
 2003/05/01,13:00,19.9,41,18.2,17
 2003/05/01,13:15,20.1,40,18.1,17
 2003/05/01,13:30,20.1,41,18.1,17.1
 2003/05/01,13:45,20.2,41,18.3,17.1
 2003/05/01,14:00,20.4,41,18.3,17.1
 2003/05/01,14:15,20.4,42,18.3,17
 2003/05/01,14:30,20.7,41,18.7,17.3
 2003/05/01,14:45,20.6,42,18.8,17.3
 2003/05/01,15:00,20.9,42,19.4,17.3
 2003/05/01,15:15,20.9,35,19.6,17.4
 2003/05/01,15:30,21.3,32,19.7,17.4
 2003/05/01,15:45,21.3,35,19.6,17.4
 2003/05/01,16:00,21.7,37,19.7,17.4
 2003/05/01,16:15,21.9,41,19.8,17.4
 2003/05/01,16:30,22.1,39,20,17.4
 2003/05/01,16:45,22.6,38,20.2,17.5
 2003/05/01,17:00,22.8,33,20.2,17.4
 2003/05/01,17:15,22.7,33,20.5,17.4
 2003/05/01,17:30,22.7,35,20.6,17.4
 2003/05/01,17:45,23.2,36,20.7,17.4
 2003/05/01,18:00,23.5,48,20.6,17.3
 2003/05/01,18:15,23.3,40,20.4,17.3
 2003/05/01,18:30,23.4,39,20.1,17.3
 2003/05/01,18:45,23.6,39,19.8,17.4
 2003/05/01,19:00,23.3,38,19.8,17.4
 2003/05/01,19:15,23.3,38,19.6,17.4
 2003/05/01,19:30,23,39,19.4,17.5
 2003/05/01,19:45,22.8,43,19.4,17.5
 2003/05/01,20:00,22.8,47,19.3,17.3
 2003/05/01,20:15,22.7,48,19.3,17.4
 2003/05/01,20:30,22.8,47,19.1,17.4
 2003/05/01,20:45,23.1,44,19,17.4
 2003/05/01,21:00,22.3,47,19,17.5
 2003/05/01,21:15,22.4,42,18.8,17.5
 2003/05/01,21:30,22.5,46,18.7,17.5
 2003/05/01,21:45,22.6,47,18.7,17.6
 2003/05/01,22:00,22.7,48,18.6,17.6
 2003/05/01,22:15,22.6,50,18.6,17.6
 2003/05/01,22:30,22.8,48,18.6,17.4
 2003/05/01,22:45,22.6,48,18.4,17.5
 2003/05/01,23:00,22.5,49,18.2,17.5
 2003/05/01,23:15,22.7,48,18.1,17.5
 2003/05/01,23:30,22.3,49,18.1,17.4
 2003/05/01,23:45,22.4,48,18,17.3
 2003/05/02, 0:00,22.2,50,17.9,17.3
 2003/05/02, 0:15,22.2,49,17.7,17.4
 2003/05/02, 0:30,22.3,48,17.6,17.4
 2003/05/02, 0:45,22.1,48,17.5,17.4
 2003/05/02, 1:00,22,48,17.5,17.4
 2003/05/02, 1:15,21.9,48,17.3,17.3
 2003/05/02, 1:30,21.6,49,17.2,17.3
 2003/05/02, 1:45,21.7,48,17,17.3
 2003/05/02, 2:00,21.6,48,16.9,17.4
 2003/05/02, 2:15,21.4,49,16.8,17.4
 2003/05/02, 2:30,21.3,49,16.8,17.4
 2003/05/02, 2:45,21.1,49,16.7,17.4
 2003/05/02, 3:00,21.1,49,16.6,17.4
 2003/05/02, 3:15,21,49,16.5,17.5
 2003/05/02, 3:30,20.8,49,16.4,17.5
 2003/05/02, 3:45,20.8,49,16.3,17.5
 2003/05/02, 4:00,20.8,49,16.2,17.5
 2003/05/02, 4:15,20.7,49,16.2,17.6
 2003/05/02, 4:30,20.6,50,16.3,17.6
 2003/05/02, 4:45,20.3,50,16.2,17.6
 2003/05/02, 5:00,20.3,50,16.2,17.6
 2003/05/02, 5:15,20.2,50,16,17.2
 2003/05/02, 5:30,20.2,51,16.2,17.2
 2003/05/02, 5:45,20.2,49,16.2,17.2
 2003/05/02, 6:00,20,49,16.2,17.3
 2003/05/02, 6:15,19.8,49,16.2,17.3
 2003/05/02, 6:30,20.2,52,16.2,17.3
 2003/05/02, 6:45,20.4,56,16.1,17.3
 2003/05/02, 7:00,20.1,56,16.5,17.2
 2003/05/02, 7:15,20.2,54,16.6,17.3
 2003/05/02, 7:30,20.6,48,16.5,17.3
 2003/05/02, 7:45,20.6,48,16.8,17.3
 2003/05/02, 8:00,20.9,47,17.1,17.3
 2003/05/02, 8:15,20.7,48,17.2,17.3
 2003/05/02, 8:30,20.7,48,17.4,17.1
 2003/05/02, 8:45,20.6,49,17.6,17.1
 2003/05/02, 9:00,20.9,54,17.8,17.2
 2003/05/02, 9:15,21.1,52,18.2,17.2
 2003/05/02, 9:30,21,49,18.4,17.2
 2003/05/02, 9:45,21.3,48,18.5,17.2
 2003/05/02,10:00,21.4,49,18.6,17.3
 2003/05/02,10:15,21.5,49,18.8,17.3
 2003/05/02,10:30,21.6,48,19,17.3
 2003/05/02,10:45,21.5,48,19,17.3
 2003/05/02,11:00,21.7,48,19.2,17.3
 2003/05/02,11:15,21.7,48,19.3,17.4
 2003/05/02,11:30,21.8,47,19.5,17.4
 2003/05/02,11:45,21.7,48,19.7,17.1
 2003/05/02,12:00,21.9,47,20,17.1
 2003/05/02,12:15,21.9,47,20.2,17.2
 2003/05/02,12:30,21.9,47,20.3,17.2
 2003/05/02,12:45,21.9,47,20.3,17.3
 2003/05/02,13:00,22,47,20.3,17.3
 2003/05/02,13:15,22.4,49,20.5,17.3
 2003/05/02,13:30,22.5,48,20.5,17.4
 2003/05/02,13:45,22.5,48,20.5,17.4
 2003/05/02,14:00,22.6,48,20.7,17.5
 2003/05/02,14:15,22.8,47,20.7,17.5
 2003/05/02,14:30,22.9,47,20.8,17.3
 2003/05/02,14:45,23.3,46,20.9,17.4
 2003/05/02,15:00,23.5,46,20.9,17.4
 2003/05/02,15:15,23.7,46,21.4,17.4
 2003/05/02,15:30,23.9,44,21.5,17.4
 2003/05/02,15:45,23.9,44,21.7,17.4
 2003/05/02,16:00,24.4,43,21.8,17.4
 2003/05/02,16:15,24.4,44,22,17.5
 2003/05/02,16:30,24.7,43,22.2,17.5
 2003/05/02,16:45,24.5,43,22.3,17.5
 2003/05/02,17:00,24.8,43,22.3,17.5
 2003/05/02,17:15,24.7,44,22.3,17.5
 2003/05/02,17:30,25,44,22.5,17.6
 2003/05/02,17:45,25,44,22.5,17.6
 2003/05/02,18:00,25,44,22.9,17.7
 2003/05/02,18:15,25.2,44,22.7,17.7
 2003/05/02,18:30,25.1,54,22.6,17.8
 2003/05/02,18:45,25.5,54,22.6,17.6
 2003/05/02,19:00,25.6,53,22.5,17.7
 2003/05/02,19:15,25.6,52,22.3,17.7
 2003/05/02,19:30,25.4,52,22.1,17.8
 2003/05/02,19:45,25.5,51,22.1,17.8
 2003/05/02,20:00,25.5,51,22.3,17.6
 2003/05/02,20:15,25.4,53,22.1,17.5
 2003/05/02,20:30,25.4,57,22,17.6
 2003/05/02,20:45,25.7,64,21.9,17.6
 2003/05/02,21:00,25.8,58,21.8,17.6
 2003/05/02,21:15,26.1,54,21.7,17.6
 2003/05/02,21:30,26.1,53,21.6,17.7
 2003/05/02,21:45,26.1,53,21.5,17.8
 2003/05/02,22:00,26,53,21.5,17.6
 2003/05/02,22:15,26,52,21.7,17.7
 2003/05/02,22:30,25.5,52,21.7,17.7
 2003/05/02,22:45,25.6,52,21.5,17.6
 2003/05/02,23:00,25.7,51,21.3,17.7
 2003/05/02,23:15,25.5,51,21.3,17.5
 2003/05/02,23:30,25.6,51,21.2,17.6
 2003/05/02,23:45,25.2,52,21.1,17.6
 2003/05/03, 0:00,25.2,51,21,17.7
 2003/05/03, 0:15,25,51,20.9,17.7
 2003/05/03, 0:30,24.9,52,20.9,17.8
 2003/05/03, 0:45,24.9,51,20.9,17.7
 2003/05/03, 1:00,24.6,52,20.8,17.8
 2003/05/03, 1:15,24.7,51,20.7,17.8
 2003/05/03, 1:30,24.4,52,20.7,17.7
 2003/05/03, 1:45,24.4,52,20.6,17.7
 2003/05/03, 2:00,24.3,51,20.5,17.8
 2003/05/03, 2:15,24.1,52,20.5,17.8
 2003/05/03, 2:30,24.2,51,20.3,17.9
 2003/05/03, 2:45,23.8,53,20.2,17.9
 2003/05/03, 3:00,23.8,52,20.2,18
 2003/05/03, 3:15,23.7,52,20.1,18
 2003/05/03, 3:30,23.6,52,20,18.1
 2003/05/03, 3:45,23.5,52,20,17.8
 2003/05/03, 4:00,23.3,52,19.9,17.9
 2003/05/03, 4:15,23.4,51,19.7,17.9
 2003/05/03, 4:30,23,52,19.7,17.9
 2003/05/03, 4:45,23.2,52,19.7,18
 2003/05/03, 5:00,22.8,52,19.6,18
 2003/05/03, 5:15,22.9,53,19.5,17.6
 2003/05/03, 5:30,22.8,57,19.5,17.7
 2003/05/03, 5:45,22.6,59,19.4,17.7
 2003/05/03, 6:00,23,58,19.4,17.7
 2003/05/03, 6:15,23.2,57,19.4,17.6
 2003/05/03, 6:30,23.2,56,18.6,17.6
 2003/05/03, 6:45,23.2,51,19.4,17.7
 2003/05/03, 7:00,23,51,19.6,17.7
 2003/05/03, 7:15,22.7,53,19.8,17.7
 2003/05/03, 7:30,22.9,51,19.9,17.8
 2003/05/03, 7:45,23,51,20,17.8
 2003/05/03, 8:00,22.9,51,20.2,17.9
 2003/05/03, 8:15,22.6,53,20.3,17.9
 2003/05/03, 8:30,22.8,52,20.5,17.9
 2003/05/03, 8:45,22.9,51,20.7,18
 2003/05/03, 9:00,23,51,20.8,18
 2003/05/03, 9:15,22.9,52,21,18.1
 2003/05/03, 9:30,22.7,53,21.1,18.1
 2003/05/03, 9:45,22.9,52,21.1,18.2
 2003/05/03,10:00,23.3,51,21.2,18.2
 2003/05/03,10:15,23.4,50,21.4,18.2
 2003/05/03,10:30,23.5,50,21.5,18.3
 2003/05/03,10:45,23.5,50,21.5,18.3
 2003/05/03,11:00,23.4,51,21.6,18.4
 2003/05/03,11:15,23.7,50,21.7,18.4
 2003/05/03,11:30,23.7,50,21.9,18.5
 2003/05/03,11:45,23.5,51,22,18.5
 2003/05/03,12:00,23.8,49,22.3,18.6
 2003/05/03,12:15,23.9,49,22.4,18.6
 2003/05/03,12:30,23.7,50,22.4,18.7
 2003/05/03,12:45,24,49,22.5,18.7
 2003/05/03,13:00,24,49,22.5,18.8
 2003/05/03,13:15,23.8,50,22.6,18.8
 2003/05/03,13:30,24.2,48,22.6,18.9
 2003/05/03,13:45,24.3,48,22.6,18.9
 2003/05/03,14:00,24.2,49,22.6,19
 2003/05/03,14:15,24.5,48,22.7,19
 2003/05/03,14:30,24.6,47,22.8,19.1
 2003/05/03,14:45,24.6,48,22.8,19.1
 2003/05/03,15:00,25,46,23,19.2
 2003/05/03,15:15,25.1,46,23.1,19.2
 2003/05/03,15:30,25.2,46,23.2,19.3
 2003/05/03,15:45,25.7,45,23.3,19.3
 2003/05/03,16:00,25.7,45,23.5,19.4
 2003/05/03,16:15,25.9,45,23.7,19.4
 2003/05/03,16:30,26.5,43,24,19.5
 2003/05/03,16:45,26.5,44,24.2,19.5
 2003/05/03,17:00,26.7,43,24.4,19.6
 2003/05/03,17:15,27.2,42,24.7,19.6
 2003/05/03,17:30,27.1,42,24.9,19.7
 2003/05/03,17:45,27.5,42,25.1,19.7
 2003/05/03,18:00,27.7,41,25,19.8
 2003/05/03,18:15,27.4,42,24.8,19.8
 2003/05/03,18:30,27.4,41,24.6,17.8
 2003/05/03,18:45,27.3,42,24.4,17.9
 2003/05/03,19:00,26.7,37,24.3,18
 2003/05/03,19:15,26.9,44,24.1,18.1
 2003/05/03,19:30,26.9,39,23.9,18.2
 2003/05/03,19:45,27,38,23.5,18.2
 2003/05/03,20:00,26.7,36,23.2,18.1
 2003/05/03,20:15,26.5,37,23,18.2
 2003/05/03,20:30,26.6,38,22.8,18.2
 2003/05/03,20:45,26.4,38,22.6,17.6
 2003/05/03,21:00,26.2,39,22.6,17.6
 2003/05/03,21:15,25.9,44,22.3,17.7
 2003/05/03,21:30,26.1,41,22.2,17.9
 2003/05/03,21:45,26.3,41,22.2,17.9
 2003/05/03,22:00,25.8,46,22,18
 2003/05/03,22:15,25.5,44,21.8,18
 2003/05/03,22:30,26,45,21.9,18.1
 2003/05/03,22:45,25.9,54,22,18.2
 2003/05/03,23:00,26.2,50,21.8,17.9
 2003/05/03,23:15,26.1,49,21.4,17.9
 2003/05/03,23:30,26,49,21,18
 2003/05/03,23:45,25.8,47,20.6,17.6
 2003/05/04, 0:00,25.8,47,20.4,17.7
 2003/05/04, 0:15,26,45,20.2,17.7
 2003/05/04, 0:30,26,45,20.1,17.8
 2003/05/04, 0:45,26,45,19.9,17.8
 2003/05/04, 1:00,25.8,45,19.7,17.9
 2003/05/04, 1:15,25.7,44,19.6,18
 2003/05/04, 1:30,25.5,43,19.7,18
 2003/05/04, 1:45,25.4,44,19.5,18.1
 2003/05/04, 2:00,25.2,44,19.4,18.1
 2003/05/04, 2:15,25.2,44,19.4,18.2
 2003/05/04, 2:30,24.9,45,19.4,18.2
 2003/05/04, 2:45,24.7,44,19.3,18.3
 2003/05/04, 3:00,24.7,45,19,18.3
 2003/05/04, 3:15,24.6,45,19.1,18.3
 2003/05/04, 3:30,24.4,45,19.1,18.2
 2003/05/04, 3:45,24.3,46,18.9,18.2
 2003/05/04, 4:00,24,46,18.8,18.2
 2003/05/04, 4:15,24,46,18.6,18.3
 2003/05/04, 4:30,23.8,47,18.5,18.3
 2003/05/04, 4:45,23.8,47,18.5,18.3
 2003/05/04, 5:00,23.6,47,18.4,18.4
 2003/05/04, 5:15,23.5,45,18.6,18.2
 2003/05/04, 5:30,23.1,46,18.6,18
 2003/05/04, 5:45,23.3,46,18.5,17.8
 2003/05/04, 6:00,23.1,49,18.6,17.8
 2003/05/04, 6:15,23.2,49,18.6,17.7
 2003/05/04, 6:30,23.3,48,18.8,17.7
 2003/05/04, 6:45,23.2,47,18.9,17.8
 2003/05/04, 7:00,23.3,46,19.1,17.8
 2003/05/04, 7:15,23,47,19.2,17.9
 2003/05/04, 7:30,23.1,46,19.4,17.9
 2003/05/04, 7:45,23,47,19.4,17.9
 2003/05/04, 8:00,22.8,48,19.6,18
 2003/05/04, 8:15,22.5,48,19.6,18
 2003/05/04, 8:30,22.7,48,19.7,18
 2003/05/04, 8:45,22.9,47,19.9,18.1
 2003/05/04, 9:00,23.1,47,20,18.1
 2003/05/04, 9:15,23.2,46,20,18.2
 2003/05/04, 9:30,23.2,46,20.2,18.2
 2003/05/04, 9:45,23.2,46,20.3,18.2
 2003/05/04,10:00,23.3,46,20.5,18.3
 2003/05/04,10:15,23.3,46,20.7,18.3
 2003/05/04,10:30,23.5,46,20.8,18.3
 2003/05/04,10:45,23.5,46,20.9,18.4
 2003/05/04,11:00,23.6,46,21.1,18.4
 2003/05/04,11:15,23.5,47,21.2,18.4
 2003/05/04,11:30,23.7,46,21.3,18.5
 2003/05/04,11:45,23.6,47,21.4,18.5
 2003/05/04,12:00,23.8,46,21.6,18.6
 2003/05/04,12:15,23.5,47,21.7,18.6
 2003/05/04,12:30,23.8,46,21.8,18.6
 2003/05/04,12:45,24.1,46,21.9,18.7
 2003/05/04,13:00,23.8,47,22,18.7
 2003/05/04,13:15,24.1,46,22.1,18.7
 2003/05/04,13:30,24.3,46,22.2,18.8
 2003/05/04,13:45,24,46,22.2,18.8
 2003/05/04,14:00,24.4,45,22.3,18.9
 2003/05/04,14:15,24.5,45,22.4,18.9
 2003/05/04,14:30,24.3,46,22.5,18.9
 2003/05/04,14:45,24.7,45,22.6,19
 2003/05/04,15:00,25,44,22.7,19
 2003/05/04,15:15,24.7,45,22.8,19.1
 2003/05/04,15:30,25.3,43,23,19.1
 2003/05/04,15:45,25.5,43,23.1,19.2
 2003/05/04,16:00,25.6,43,23.4,19.2
 2003/05/04,16:15,26.1,42,23.6,19.2
 2003/05/04,16:30,26.3,41,23.8,19.3
 2003/05/04,16:45,26.4,42,24.1,19.4
 2003/05/04,17:00,26.9,40,24.3,19.4
 2003/05/04,17:15,27,40,24.5,19.4
 2003/05/04,17:30,27,40,24.6,19.5
 2003/05/04,17:45,27.4,39,24.5,19.5
 2003/05/04,18:00,27.1,40,24.4,19.6
 2003/05/04,18:15,27,40,24.3,19.6
 2003/05/04,18:30,27.1,40,24.3,19.7
 2003/05/04,18:45,26.6,41,24.2,19.7
 2003/05/04,19:00,26.7,41,24,19.8
 2003/05/04,19:15,26.6,41,23.9,19.8
 2003/05/04,19:30,26.1,43,23.7,19.9
 2003/05/04,19:45,26.4,43,23.7,19.9
 2003/05/04,20:00,26.2,44,23.6,20
 2003/05/04,20:15,26.6,54,23.6,20.1
 2003/05/04,20:30,26.7,42,23.5,20.1
 2003/05/04,20:45,26.4,40,23.4,20.2
 2003/05/04,21:00,26.4,37,23.4,18.6
 2003/05/04,21:15,26.5,37,23.3,18.7
 2003/05/04,21:30,26.5,42,23.4,18.8
 2003/05/04,21:45,25.8,52,23.3,18.8
 2003/05/04,22:00,25.7,49,23.2,18.5
 2003/05/04,22:15,26.3,46,23.1,18.6
 2003/05/04,22:30,26.7,46,23,18.2
 2003/05/04,22:45,26.7,47,22.9,18.3
 2003/05/04,23:00,26.8,47,22.8,18.4
 2003/05/04,23:15,26.9,46,22.7,18.5
 2003/05/04,23:30,26.9,46,22.6,18.5
 2003/05/04,23:45,26.9,46,22.5,18.6
 2003/05/05, 0:00,26.8,46,22.5,18.6
 2003/05/05, 0:15,26.8,46,22.4,18.7
 2003/05/05, 0:30,26.8,46,22.2,18.8
 2003/05/05, 0:45,26.7,46,22.2,18.8
 2003/05/05, 1:00,26.6,46,22.1,19
 2003/05/05, 1:15,26.5,46,22,18.7
 2003/05/05, 1:30,26.4,47,21.9,18.8
 2003/05/05, 1:45,26.4,46,21.8,18.8
 2003/05/05, 2:00,26.3,47,21.6,18.9
 2003/05/05, 2:15,26.2,47,21.6,18.9
 2003/05/05, 2:30,26.1,47,21.5,19
 2003/05/05, 2:45,26,47,21.4,19
 2003/05/05, 3:00,25.9,47,21.6,18.8
 2003/05/05, 3:15,25.8,47,21.5,18.8
 2003/05/05, 3:30,25.6,47,21.4,18.8
 2003/05/05, 3:45,25.6,47,21.4,18.9
 2003/05/05, 4:00,25.3,47,21.3,18.9
 2003/05/05, 4:15,24.8,48,21.2,19
 2003/05/05, 4:30,24.6,49,21.1,19
 2003/05/05, 4:45,24.8,48,21.1,18.7
 2003/05/05, 5:00,24.8,48,20.9,18.8
 2003/05/05, 5:15,24.8,51,20.8,18.3
 2003/05/05, 5:30,24.1,53,20.9,18.4
 2003/05/05, 5:45,24,53,20.9,18.4
 2003/05/05, 6:00,24.2,51,20.9,18.3
 2003/05/05, 6:15,24.1,50,20.9,18.3
 2003/05/05, 6:30,24.1,55,20.8,18.4
 2003/05/05, 6:45,24.7,49,20.8,18.4
 2003/05/05, 7:00,24.9,49,20.6,18.5
 2003/05/05, 7:15,24.6,53,20.6,18.2
 2003/05/05, 7:30,24.9,51,20.8,18.1
 2003/05/05, 7:45,24.9,47,21,18.1
 2003/05/05, 8:00,25,46,21.2,17.9
 2003/05/05, 8:15,24.6,45,21.3,18
 2003/05/05, 8:30,24.3,46,21.6,18
 2003/05/05, 8:45,24.7,43,21.8,18.1
 2003/05/05, 9:00,24.9,42,22.1,18.1
 2003/05/05, 9:15,25.1,41,22.4,18.2
 2003/05/05, 9:30,25.2,41,22.6,18.2
 2003/05/05, 9:45,25.3,41,22.9,18.3
 2003/05/05,10:00,25.5,40,22.9,18.3
 2003/05/05,10:15,25.6,39,23.1,18.4
 2003/05/05,10:30,25.7,38,23.2,18.5
 2003/05/05,10:45,25.7,38,23.2,18.5
 2003/05/05,11:00,25.6,38,23.5,18.6
 2003/05/05,11:15,25.8,37,23.7,18.6
 2003/05/05,11:30,25.6,37,23.8,18.7
 2003/05/05,11:45,25.9,36,24,18.7
 2003/05/05,12:00,25.7,36,24,18.8
 2003/05/05,12:15,25.9,35,24.2,18.8
 2003/05/05,12:30,25.9,35,24.1,18.9
 2003/05/05,12:45,25.9,36,24.3,18.9
 2003/05/05,13:00,26,35,24.3,19
 2003/05/05,13:15,26.1,35,24.4,19.1
 2003/05/05,13:30,26.2,34,24.8,19.1
 2003/05/05,13:45,26.3,33,24.7,19.2
 2003/05/05,14:00,26.3,31,24.9,19.2
 2003/05/05,14:15,26.4,30,24.8,19.3
 2003/05/05,14:30,26.5,30,24.8,19.3
 2003/05/05,14:45,26.6,30,24.7,19.4
 2003/05/05,15:00,26.7,30,24.7,19.4
 2003/05/05,15:15,27,31,25.2,19.5
 2003/05/05,15:30,27,30,25.2,19.5
 2003/05/05,15:45,27.4,30,25.4,19.6
 2003/05/05,16:00,27.4,30,25.7,19.7
 2003/05/05,16:15,27.8,29,25.7,19.7
 2003/05/05,16:30,27.8,29,25.5,19.8
 2003/05/05,16:45,28.1,30,25.5,19.8
 2003/05/05,17:00,28.2,31,25.6,19.9
 2003/05/05,17:15,28.5,31,25.7,20
 2003/05/05,17:30,28.4,32,25.7,20
 2003/05/05,17:45,28.5,33,25.7,20.1
 2003/05/05,18:00,28.5,33,25.6,20.2
 2003/05/05,18:15,28.3,34,25.4,20.2
 2003/05/05,18:30,28.4,34,25.4,20.3
 2003/05/05,18:45,28.1,36,25.2,18.9
 2003/05/05,19:00,28.2,37,25.2,19
 2003/05/05,19:15,28.1,40,25.1,19.1
 2003/05/05,19:30,27.7,35,25,19.2
 2003/05/05,19:45,28.1,37,24.9,19.2
 2003/05/05,20:00,28,39,24.8,19.3
 2003/05/05,20:15,28.2,35,24.7,18.8
 2003/05/05,20:30,28.2,34,24.6,18.9
 2003/05/05,20:45,27.9,34,24.5,19
 2003/05/05,21:00,28,35,24.4,18.4
 2003/05/05,21:15,27.6,37,24.3,18.5
 2003/05/05,21:30,27.8,40,24.1,18.6
 2003/05/05,21:45,27.5,42,24,18.6
 2003/05/05,22:00,27.6,40,24,18.7
 2003/05/05,22:15,27.7,40,23.9,18.8
 2003/05/05,22:30,27.3,40,23.8,18.9
 2003/05/05,22:45,27.3,40,23.8,18.9
 2003/05/05,23:00,27.1,42,23.6,19
 2003/05/05,23:15,27.1,41,23.5,19
 2003/05/05,23:30,27.1,41,23.3,19.1
 2003/05/05,23:45,26.7,43,23.2,19.2
 2003/05/06, 0:00,26.9,42,23.1,19.2
 2003/05/06, 0:15,26.6,43,23,19.3
 2003/05/06, 0:30,26.6,42,22.9,19.2
 2003/05/06, 0:45,26.6,43,22.8,19.2
 2003/05/06, 1:00,26.2,44,22.7,19.3
 2003/05/06, 1:15,26.4,43,22.6,19.3
 2003/05/06, 1:30,26.1,44,22.5,19.4
 2003/05/06, 1:45,26.1,44,22.4,19.5
 2003/05/06, 2:00,26,43,22.3,19.5
 2003/05/06, 2:15,25.7,44,22.3,19.6
 2003/05/06, 2:30,25.9,44,22.2,19.6
 2003/05/06, 2:45,25.5,45,22.1,19.7
 2003/05/06, 3:00,25.6,44,22,19.7
 2003/05/06, 3:15,25.4,45,21.8,19.8
 2003/05/06, 3:30,25.3,45,21.7,19.8
 2003/05/06, 3:45,25.3,45,21.6,19.9
 2003/05/06, 4:00,25,46,21.6,19.4
 2003/05/06, 4:15,25.2,45,21.6,19.4
 2003/05/06, 4:30,24.8,46,21.4,19.5
 2003/05/06, 4:45,25,45,21.3,19.5
 2003/05/06, 5:00,24.5,46,21.2,19.5
 2003/05/06, 5:15,24.7,46,21.1,19.6
 2003/05/06, 5:30,24.4,47,21.1,18.9
 2003/05/06, 5:45,24.1,50,21.1,18.9
 2003/05/06, 6:00,24,49,21,19
 2003/05/06, 6:15,24.2,50,21,18.7
 2003/05/06, 6:30,24.6,51,21.1,18.5
 2003/05/06, 6:45,24.7,50,21.2,18.6
 2003/05/06, 7:00,24.7,48,21.2,18.4
 2003/05/06, 7:15,24.9,52,21.4,18.5
 2003/05/06, 7:30,25.1,52,21.6,18.5
 2003/05/06, 7:45,24.8,49,21.7,18.7
 2003/05/06, 8:00,24.6,49,22,18.8
 2003/05/06, 8:15,24.9,48,22.1,18.8
 2003/05/06, 8:30,25.2,46,22.6,18.8
 2003/05/06, 8:45,25.6,47,22.8,18.7
 2003/05/06, 9:00,25.9,50,22.8,18.7
 2003/05/06, 9:15,25.9,48,23,18.8
 2003/05/06, 9:30,26.1,53,23.3,18.8
 2003/05/06, 9:45,26.1,50,23.3,18.9
 2003/05/06,10:00,26.3,46,23.5,18.9
 2003/05/06,10:15,26.4,45,23.6,19
 2003/05/06,10:30,26.4,44,23.7,19
 2003/05/06,10:45,26.5,44,23.8,19.1
 2003/05/06,11:00,26.5,44,23.9,19.1
 2003/05/06,11:15,26.6,44,24,19.2
 2003/05/06,11:30,26.6,44,24,19.2
 2003/05/06,11:45,26.7,43,24.2,19.3
 2003/05/06,12:00,26.5,44,24.3,19.3
 2003/05/06,12:15,26.4,44,24.4,19.4
 2003/05/06,12:30,26.7,43,24.5,19.5
 2003/05/06,12:45,26.7,43,24.6,19.5
 2003/05/06,13:00,26.9,43,24.6,19.6
 2003/05/06,13:15,26.7,44,24.6,19.6
 2003/05/06,13:30,26.7,44,24.6,18.9
 2003/05/06,13:45,26.9,44,24.6,19
 2003/05/06,14:00,27.1,44,24.6,19
 2003/05/06,14:15,26.9,45,24.6,19.1
 2003/05/06,14:30,27,45,24.6,19.2
 2003/05/06,14:45,27.3,44,24.7,19.4
 2003/05/06,15:00,27.3,45,25.1,19.1
 2003/05/06,15:15,27.1,46,25,19.2
 2003/05/06,15:30,27.5,45,25,19.3
 2003/05/06,15:45,27.6,44,25.1,19.3
 2003/05/06,16:00,27.4,45,25.2,19.4
 2003/05/06,16:15,27.6,45,25.4,19.4
 2003/05/06,16:30,27.9,44,25.3,19.5
 2003/05/06,16:45,27.7,44,25.4,19.6
 2003/05/06,17:00,27.6,44,25.6,19.6
 2003/05/06,17:15,27.8,44,25.6,19.7
 2003/05/06,17:30,28,44,25.7,19.8
 2003/05/06,17:45,28,43,25.6,19.6
 2003/05/06,18:00,27.8,43,25.4,19.3
 2003/05/06,18:15,27.8,53,25.2,19.3
 2003/05/06,18:30,28.1,47,25.1,19.4
 2003/05/06,18:45,28.6,58,25.1,19.5
 2003/05/06,19:00,28.6,50,25,19.5
 2003/05/06,19:15,28.7,50,24.9,19.6
 2003/05/06,19:30,28.1,46,24.8,19.7
 2003/05/06,19:45,27.8,44,24.7,19.7
 2003/05/06,20:00,28.2,42,24.7,18.9
 2003/05/06,20:15,28.3,43,24.7,19
 2003/05/06,20:30,28.4,43,24.5,19.1
 2003/05/06,20:45,28.3,44,24.6,18.8
 2003/05/06,21:00,28,47,24.4,18.9
 2003/05/06,21:15,28.3,44,24.3,19
 2003/05/06,21:30,28.4,43,24.2,19.1
 2003/05/06,21:45,28.4,48,24.2,19.1
 2003/05/06,22:00,28.5,44,24.1,19.2
 2003/05/06,22:15,28.3,43,24.1,19.1
 2003/05/06,22:30,28.1,43,24.1,19.2
 2003/05/06,22:45,28,44,24,19.2
 2003/05/06,23:00,28,44,23.8,19.3
 2003/05/06,23:15,28,44,23.8,19.4
 2003/05/06,23:30,27.8,44,23.7,19.5
 2003/05/06,23:45,27.8,45,23.6,19.5
 2003/05/07, 0:00,27.6,45,23.6,19.6
 2003/05/07, 0:15,27.6,45,23.5,19.6
 2003/05/07, 0:30,27.4,45,23.5,19.7
 2003/05/07, 0:45,27.3,48,23.3,19.5
 2003/05/07, 1:00,27,48,23.2,19.6
 2003/05/07, 1:15,27.1,48,23.2,19.6
 2003/05/07, 1:30,26.9,48,23.2,19.7
 2003/05/07, 1:45,27.1,47,23.1,19.8
 2003/05/07, 2:00,27,47,23,19.8
 2003/05/07, 2:15,27,46,23.1,19.6
 2003/05/07, 2:30,26.7,46,23.1,19.7
 2003/05/07, 2:45,26.7,46,23.1,19.7
 2003/05/07, 3:00,26.6,46,23.1,19.5
 2003/05/07, 3:15,26.6,46,23,19.6
 2003/05/07, 3:30,26.4,47,23,19.6
 2003/05/07, 3:45,26.4,47,23,19.7
 2003/05/07, 4:00,26.3,47,23,19.7
 2003/05/07, 4:15,26.2,47,22.9,19.8
 2003/05/07, 4:30,26.3,47,22.9,19.8
 2003/05/07, 4:45,26.1,48,22.9,19.9
 2003/05/07, 5:00,26.2,48,22.8,19.9
 2003/05/07, 5:15,26,49,22.8,20
 2003/05/07, 5:30,26.1,49,22.8,19.6
 2003/05/07, 5:45,26.1,51,22.7,19.6
 2003/05/07, 6:00,25.6,52,22.7,19.7
 2003/05/07, 6:15,25.6,53,22.7,19.8
 2003/05/07, 6:30,26.1,54,22.6,19.4
 2003/05/07, 6:45,26.6,54,22.7,19
 2003/05/07, 7:00,26.7,52,22.8,19.1
 2003/05/07, 7:15,26.6,51,22.8,19.2
 2003/05/07, 7:30,26.6,50,22.8,19.3
 2003/05/07, 7:45,26.6,49,23,19.3
 2003/05/07, 8:00,26.7,49,23.3,18.9
 2003/05/07, 8:15,27.1,54,23.4,19
 2003/05/07, 8:30,27,53,23.6,19
 2003/05/07, 8:45,27.1,50,23.8,19.1
 2003/05/07, 9:00,26.8,58,23.9,19.1
 2003/05/07, 9:15,26.7,56,24.1,19.2
 2003/05/07, 9:30,27,53,24.1,19.2
 2003/05/07, 9:45,27.1,51,24.3,19.3
 2003/05/07,10:00,27.3,51,24.4,19.3
 2003/05/07,10:15,27.2,51,24.5,19.4
 2003/05/07,10:30,27.2,51,24.5,19.5
 2003/05/07,10:45,27.2,51,24.5,19.5
 2003/05/07,11:00,27.1,51,24.6,19.6
 2003/05/07,11:15,27.1,51,24.6,19.6
 2003/05/07,11:30,27,52,24.7,19.7
 2003/05/07,11:45,27.1,52,24.7,19.7
 2003/05/07,12:00,27.2,51,24.8,19.8
 2003/05/07,12:15,27,53,24.8,19.9
 2003/05/07,12:30,27.3,52,24.9,19.9
 2003/05/07,12:45,27.3,52,25,20
 2003/05/07,13:00,27.1,53,25.1,20.1
 2003/05/07,13:15,27.5,52,25.1,20.1
 2003/05/07,13:30,27.4,51,25.1,20.2
 2003/05/07,13:45,27.2,53,25.2,20.3
 2003/05/07,14:00,27.5,53,25.3,20.3
 2003/05/07,14:15,27.6,52,25.2,20.4
 2003/05/07,14:30,27.4,53,25.2,20.5
 2003/05/07,14:45,27.5,54,25.4,20.6
 2003/05/07,15:00,27.7,53,25.4,20.6
 2003/05/07,15:15,27.8,53,25.5,20.7
 2003/05/07,15:30,27.7,54,25.6,19.5
 2003/05/07,15:45,28.1,54,25.9,19.5
 2003/05/07,16:00,28.4,53,26.1,19.6
 2003/05/07,16:15,28.8,51,26.3,19.4
 2003/05/07,16:30,28.9,50,26.4,19.4
 2003/05/07,16:45,28.9,51,26.5,19.5
 2003/05/07,17:00,29.2,51,26.4,19.6
 2003/05/07,17:15,29.3,49,26.3,19.7
 2003/05/07,17:30,29.4,49,26.2,19.7
 2003/05/07,17:45,29,50,26.2,19.9
 2003/05/07,18:00,28.6,51,26.1,20
 2003/05/07,18:15,28.9,50,26.1,19.4
 2003/05/07,18:30,29.2,50,26.2,19.4
 2003/05/07,18:45,29.3,50,26,19.5
 2003/05/07,19:00,29.3,49,26,19.2
 2003/05/07,19:15,29.2,49,26,19.3
 2003/05/07,19:30,29.2,49,25.9,19.4
 2003/05/07,19:45,28.9,50,25.9,19.4
 2003/05/07,20:00,28.7,50,25.9,19.8